Spencer, IA

4:01 AM CDT on September 29, 2016 (GMT -0500)
Spencer Municipal

Weather History for KSPW - April, 2014

Change the Weather History Date:

Sunday, April 20, 2014

  Actual Average Record
Temperature  
Mean Temperature 63 °F -  
Max Temperature 78 °F 60 °F 89 °F (1980)
Min Temperature 48 °F 39 °F 18 °F (2013)
Degree Days  
Heating Degree Days 2    
Growing Degree Days 13 (Base 50)    
Moisture  
Dew Point 51 °F    
Average Humidity 65    
Maximum Humidity 80    
Minimum Humidity 43    
Precipitation  
Precipitation 0.16 in - - ()
Sea Level Pressure  
Sea Level Pressure 29.95 in    
Wind  
Wind Speed 7 mph (ESE)    
Max Wind Speed 16 mph    
Max Gust Speed 20 mph    
Visibility 9 miles    
Events Rain , Thunderstorm    
Averages and records for this station are not official NWS values.
T = Trace of Precipitation, MM = Missing Value Source: NWS Daily Summary

Daily Weather History Graph

Daily Weather History Graph

Search for Another Location

Airport or City:

Trip Planner

Search our weather history database for the weather conditions in past years. The results will help you decide how hot, cold, wet, or windy it might be!

Date:

Astronomy

Apr. 20, 2014 Rise Set
Actual Time 6:30 AM CDT 8:09 PM CDT
Civil Twilight 6:00 AM CDT 8:39 PM CDT
Nautical Twilight 5:24 AM CDT 9:16 PM CDT
Astronomical Twilight 4:45 AM CDT 9:55 PM CDT
Moon 12:53 AM CDT (4/20) 10:49 AM CDT (4/20)
Length of Visible Light 14h 39m
Length of Day
13h 38m
Waning Gibbous, 68% of the Moon is Illuminated
Apr 20
Waning Gibbous
Apr 22
Last Quarter
Apr 29
New
May 6
First Quarter
May 14
Full

Hourly Weather History & Observations

Time (CDT) Temp. Dew Point Humidity Pressure Visibility Wind Dir Wind Speed Gust Speed Precip Events Conditions
12:53 AM 57.9 °F 46.9 °F 67% 30.01 in 10.0 mi NNE 6.9 mph - N/A   Overcast
1:53 AM 55.9 °F 45.0 °F 67% 30.00 in 10.0 mi NNE 9.2 mph - 0.00 in   Overcast
2:53 AM 54.0 °F 43.0 °F 66% 29.99 in 10.0 mi ENE 5.8 mph - N/A   Mostly Cloudy
3:53 AM 52.0 °F 43.0 °F 71% 29.99 in 10.0 mi ENE 5.8 mph - N/A   Partly Cloudy
4:53 AM 51.1 °F 44.1 °F 77% 29.99 in 10.0 mi East 6.9 mph - N/A   Mostly Cloudy
5:53 AM 51.1 °F 44.1 °F 77% 29.98 in 10.0 mi NE 6.9 mph - N/A   Mostly Cloudy
6:53 AM 50.0 °F 43.0 °F 77% 30.00 in 10.0 mi East 5.8 mph - N/A   Clear
7:07 AM 48.9 °F 43.0 °F 80% 30.00 in 10.0 mi East 5.8 mph - N/A Thunderstorm Scattered Clouds
7:22 AM 51.1 °F 45.0 °F 80% 30.00 in 10.0 mi East 4.6 mph - N/A   Mostly Cloudy
7:53 AM 52.0 °F 46.0 °F 80% 30.01 in 10.0 mi Calm Calm - N/A   Overcast
8:53 AM 59.0 °F 48.0 °F 67% 30.00 in 10.0 mi East 6.9 mph - N/A   Mostly Cloudy
9:53 AM 63.0 °F 48.9 °F 60% 30.00 in 10.0 mi SE 6.9 mph - N/A   Mostly Cloudy
10:53 AM 66.9 °F 48.9 °F 52% 30.00 in 10.0 mi South 10.4 mph - N/A   Clear
11:53 AM 70.0 °F 48.0 °F 46% 30.00 in 10.0 mi Calm Calm - N/A   Clear
12:53 PM 72.0 °F 50.0 °F 46% 29.97 in 10.0 mi East 4.6 mph - N/A   Clear
1:53 PM 73.9 °F 52.0 °F 46% 29.95 in 10.0 mi Variable 5.8 mph - N/A   Clear
2:53 PM 73.9 °F 53.1 °F 48% 29.94 in 10.0 mi Variable 5.8 mph - N/A   Scattered Clouds
3:53 PM 77.0 °F 55.0 °F 47% 29.91 in 10.0 mi SSE 6.9 mph - N/A   Mostly Cloudy
4:53 PM 78.1 °F 54.0 °F 43% 29.89 in 10.0 mi South 15.0 mph 19.6 mph N/A   Mostly Cloudy
5:53 PM 75.9 °F 55.9 °F 50% 29.89 in 10.0 mi SSE 4.6 mph - 0.00 in   Mostly Cloudy
6:53 PM 73.0 °F 57.0 °F 57% 29.86 in 10.0 mi ESE 4.6 mph - N/A   Clear
7:42 PM 70.0 °F 57.0 °F 63% 29.88 in 10.0 mi Calm Calm - 0.00 in Rain , Thunderstorm Light Rain
7:50 PM 66.2 °F 57.2 °F 73% 29.89 in 2.5 mi North 3.5 mph - 0.05 in Rain , Thunderstorm Heavy Thunderstorms and Rain
7:53 PM 68.0 °F 57.9 °F 70% 29.89 in 2.0 mi NW 4.6 mph - 0.06 in Rain , Thunderstorm Thunderstorms and Rain
8:03 PM 66.9 °F 59.0 °F 76% 29.90 in 8.0 mi WNW 15.0 mph - 0.00 in Rain , Thunderstorm Light Thunderstorms and Rain
8:34 PM 66.0 °F 57.9 °F 75% 29.90 in 10.0 mi SW 4.6 mph - 0.02 in Rain , Thunderstorm Light Rain
8:53 PM 66.9 °F 55.9 °F 68% 29.88 in 9.0 mi SSW 16.1 mph - 0.03 in Rain , Thunderstorm Light Rain
9:15 PM 64.9 °F 54.0 °F 68% 29.90 in 10.0 mi Variable 3.5 mph - 0.01 in Rain Light Rain
9:53 PM 64.9 °F 52.0 °F 63% 29.90 in 10.0 mi SSW 4.6 mph - 0.02 in   Overcast
10:51 PM 64.4 °F 53.6 °F 68% 29.93 in 10.0 mi SE 12.7 mph - 0.01 in   Overcast
10:53 PM 64.9 °F 54.0 °F 68% 29.92 in 10.0 mi SSE 11.5 mph - 0.01 in   Overcast
11:38 PM 63.0 °F 55.0 °F 75% 29.92 in 10.0 mi SSE 11.5 mph - 0.00 in Rain , Thunderstorm Light Rain
11:53 PM 62.1 °F 55.9 °F 80% 29.92 in 7.0 mi South 12.7 mph - 0.04 in Rain Light Rain